This demonstration page uses our WeatherBlox Daily Observations layout. Learn more.

Left ArrowRight Arrow

41.12389, -100.76542

Hourly Observations for March 10, 2018

Temp ( °F °C ) Dew Point ( °F °C ) Humidity (%) Winds ( mph kmh ) Pressure ( in mb ) Visibility ( mi km ) Precip ( " mm )
12:53 am 00:53 Clear 41 5 24 -4.4 51 51 SSE 8 13 29.72 1007 10 16 0.00 0.00
1:53 am 01:53 Mostly Cloudy 42 5.6 24 -4.4 49 49 Calm 29.73 1007 10 16 0.00 0.00
2:53 am 02:53 Clear 41 5 23 -5 49 49 Calm 29.72 1007 10 16 0.00 0.00
3:53 am 03:53 Clear 41 5 24 -4.4 51 51 SW 5 7 29.74 1007 10 16 0.00 0.00
4:53 am 04:53 Partly Cloudy 37 2.8 26 -3.3 65 65 WNW 6 9 29.74 1007 10 16 0.00 0.00
5:53 am 05:53 Clear 34 1.1 25 -3.9 70 70 NW 7 11 29.76 1008 10 16 0.00 0.00
6:53 am 06:53 Clear 35 1.7 26 -3.3 70 70 NW 3 6 29.78 1009 10 16 0.00 0.00
7:53 am 07:53 Sunny 44 6.7 27 -2.8 51 51 W 10 17 29.80 1009 10 16 0.00 0.00
8:53 am 08:53 Sunny 46 7.8 27 -2.8 47 47 WNW 12 19 29.83 1010 10 16 0.00 0.00
9:53 am 09:53 Sunny 47 8.3 30 -1.1 52 52 NW 21 33 29.87 1012 10 16 0.00 0.00
10:53 am 10:53 Sunny 55 12.8 34 1.1 45 45 NW 22 35 29.86 1011 10 16 0.00 0.00
11:53 am 11:53 Sunny 55 12.8 33 0.6 44 44 NW 21 33 29.87 1011 10 16 0.00 0.00
12:53 pm 12:53 Mostly Cloudy 52 11.1 33 0.6 49 49 NNW 23 37 29.89 1012 10 16 0.00 0.00
1:53 pm 13:53 Mostly Cloudy 53 11.7 33 0.6 47 47 N 22 35 29.89 1012 10 16 0.00 0.00
2:53 pm 14:53 Mostly Cloudy 51 10.6 30 -1.1 44 44 NNW 21 33 29.92 1013 10 16 0.00 0.00
3:53 pm 15:53 Partly Cloudy 51 10.6 29 -1.7 43 43 NNW 21 33 29.95 1014 10 16 0.00 0.00
4:53 pm 16:53 Mostly Cloudy 51 10.6 26 -3.3 38 38 NNW 18 30 29.98 1015 10 16 0.00 0.00
5:53 pm 17:53 Cloudy 49 9.4 26 -3.3 41 41 NNW 12 19 30.01 1016 10 16 0.00 0.00
6:53 pm 18:53 Cloudy 40 4.4 31 -0.6 70 70 N 25 41 30.09 1019 10 16 0.00 0.00
7:53 pm 19:53 Mostly Cloudy 36 2.2 30 -1.1 79 79 NNW 21 33 30.14 1021 10 16 0.00 0.00
8:15 pm 20:15 Mostly Cloudy 35 1.7 29 -1.7 78 78 NNW 14 22 30.21 1023 10 16 0.00 0.00
8:53 pm 20:53 Mostly Cloudy 35 1.7 26 -3.3 70 70 NNW 17 28 30.17 1022 10 16 0.00 0.00
9:04 pm 21:04 Partly Cloudy 33 0.6 26 -3.3 75 75 NNW 15 24 30.27 1025 10 16 0.00 0.00
9:53 pm 21:53 Mostly Cloudy 31 -0.6 23 -5 72 72 NNW 13 20 30.19 1023 10 16 0.00 0.00
10:53 pm 22:53 Mostly Clear 29 -1.7 22 -5.6 75 75 NW 15 24 30.20 1023 10 16 0.00 0.00
11:53 pm 23:53 Clear 28 -2.2 21 -6.1 75 75 NNW 12 19 30.22 1023 10 16 0.00 0.00

Powered by AerisWeather